Overview Statistics Trail Chart Weather Telemetry Raw packets
 

This is the latest recevied weather packets stored in our database for station/object K0QED. If no packets are shown the sender has not sent any weather packets the latest 10 day(s).

<< 13 14 15 16 17 18 19 >>
Time Temp. Humidity Pressure Rain* Wind** Luminosity Snow
1788533358 22.78° C 35% 1025.2 hPa 0 mm - 39 W/m² -
1788533053 22.22° C 36% 1024.9 hPa 0 mm - 105 W/m² -
1788532749 22.22° C 36% 1025 hPa 0 mm - 25 W/m² -
1788532446 21.67° C 36% 1025.1 hPa 0 mm - 39 W/m² -
1788532142 21.67° C 37% 1024.9 hPa 0 mm - 26 W/m² -
1788531838 21.67° C 36% 1024.9 hPa 0 mm - 22 W/m² -
1788531537 21.11° C 38% 1025 hPa 0 mm - 22 W/m² -
1788531233 20.56° C 39% 1024.9 hPa 0 mm - 21 W/m² -
1788530929 20° C 39% 1024.7 hPa 0 mm - 21 W/m² -
1788530644 19.44° C 40% 1024.7 hPa 0 mm - 20 W/m² -
1788530323 19.44° C 42% 1024.6 hPa 0 mm - 20 W/m² -
1788530018 18.89° C 41% 1025 hPa 0 mm - 20 W/m² -
1788529714 18.89° C 42% 1024.6 hPa 0 mm - 19 W/m² -
1788529408 18.33° C 42% 1024.5 hPa 0 mm - 18 W/m² -
1788529108 18.33° C 41% 1024.5 hPa 0 mm - 17 W/m² -
1788528804 18.33° C 43% 1024.4 hPa 0 mm - 16 W/m² -
1788528503 17.78° C 43% 1024.1 hPa 0 mm - 16 W/m² -
1788528199 17.78° C 42% 1024.2 hPa 0 mm - 15 W/m² -
1788527899 17.78° C 43% 1024.1 hPa 0 mm - 14 W/m² -
1788527594 17.78° C 41% 1024 hPa 0 mm - 13 W/m² -
1788527294 17.78° C 41% 1023.7 hPa 0 mm - 11 W/m² -
1788526993 17.78° C 41% 1023.6 hPa 0 mm - 11 W/m² -
1788526689 17.78° C 40% 1023.4 hPa 0 mm - 10 W/m² -
1788526385 17.78° C 40% 1023.6 hPa 0 mm - 7 W/m² -
1788526084 17.78° C 40% 1023.6 hPa 0 mm - 7 W/m² -

* Rain latest hour (hover to see other rain measurements)
** Current wind speed in m/s (hover to see current wind gust speed)